FW6325 Weather Reports


time (UTC)temp
C
wind
direction
speed
KPH
gust
KPH
rain 1hr
cm
rain 24hr
cm
rain mn
cm
humidity
%
barometer
mb
20260508023025 10 20 1.6 6.4 0.00 3.05 3.05 95 1001.6
20260508021517 9 255 3.2 8.0 0.00 3.05 3.05 95 1001.6
20260508020015 8 221 0.0 6.4 0.00 3.05 3.05 95 1001.6
20260508014532 9 51 1.6 4.8 0.00 3.05 3.05 94 1001.5
20260508013013 9 221 0.0 4.8 0.00 3.05 3.05 95 1001.3
20260508011511 9 194 3.2 8.0 0.00 3.05 3.05 94 1001.2
20260508010016 9 173 1.6 8.0 0.00 3.05 3.05 94 1001.5
20260508004514 9 161 1.6 6.4 0.00 3.05 3.05 94 1001.4
20260508003016 10 126 3.2 11.3 0.00 3.05 3.05 94 1001.5
20260508001503 10 176 1.6 6.4 0.00 3.05 3.05 94 1001.5
20260508000003 10 107 1.6 4.8 0.00 3.05 3.05 94 1001.7
20260507234502 10 139 3.2 6.4 0.00 3.05 3.05 94 1002.0
20260507233002 10 151 0.0 8.0 0.00 3.05 3.05 94 1001.6
20260507231603 10 103 1.6 4.8 0.00 3.05 3.05 94 1001.8
20260507230101 10 119 1.6 11.3 0.00 3.05 3.05 94 1001.7
20260507224616 10 173 4.8 14.5 0.00 3.05 3.05 94 1001.8
20260507223101 10 148 1.6 16.1 0.00 3.05 3.05 94 1002.0
20260507221556 11 98 1.6 4.8 0.00 3.05 3.05 94 1002.1
20260507220057 11 239 4.8 17.7 0.03 3.05 3.05 94 1002.2
20260507214555 11 293 4.8 12.9 0.05 3.05 3.05 94 1002.3
20260507213053 10 188 4.8 17.7 0.13 3.05 3.05 94 1002.1
20260507211611 10 313 1.6 9.7 0.33 3.05 3.05 94 1001.8
20260507210050 10 214 6.4 11.3 0.53 3.02 3.02 94 1001.6
20260507204544 10 151 6.4 16.1 0.79 2.97 2.97 94 1002.5
20260507203044 10 250 4.8 9.7 1.04 2.90 2.90 93 1002.6
20260507201540 10 200 4.8 14.5 1.12 2.69 2.69 93 1003.2
20260507200038 11 148 1.6 14.5 1.17 2.49 2.49 93 1003.5
20260507194539 11 177 4.8 22.5 1.04 2.21 2.21 93 1004.0
20260507193036 11 247 4.8 16.1 1.17 1.88 1.88 92 1004.2
20260507191534 12 162 4.8 17.7 1.12 1.57 1.57 92 1004.3
20260507190036 12 227 4.8 17.7 0.94 1.32 1.32 92 1004.5
20260507184533 12 167 1.6 19.3 0.76 1.14 1.14 92 1004.4
20260507183032 12 253 1.6 17.7 0.30 0.69 0.69 91 1004.8
20260507181531 13 244 4.8 27.4 0.10 0.46 0.46 90 1004.4
20260507180030 13 251 12.9 24.1 0.03 0.38 0.38 89 1004.2
20260507174530 13 151 6.4 24.1 0.03 0.38 0.38 90 1004.1
20260507173030 13 156 6.4 16.1 0.03 0.38 0.38 90 1004.4
20260507171529 13 174 6.4 22.5 0.00 0.36 0.36 89 1004.8
20260507170026 13 149 6.4 17.7 0.00 0.36 0.36 89 1004.9
20260507164523 13 188 6.4 19.3 0.00 0.36 0.36 89 1005.2
20260507163024 13 140 6.4 24.1 0.00 0.36 0.36 89 1005.4
20260507161518 13 217 3.2 20.9 0.00 0.36 0.36 89 1006.1
20260507160020 14 172 8.0 29.0 0.00 0.36 0.36 88 1006.4
20260507154516 14 163 12.9 33.8 0.00 0.36 0.36 88 1006.7
20260507153014 14 234 8.0 24.1 0.00 0.36 0.36 88 1007.0
20260507151512 15 195 8.0 29.0 0.00 0.36 0.36 88 1007.4
20260507150012 14 169 8.0 30.6 0.00 0.36 0.36 89 1007.5
20260507144508 13 192 8.0 29.0 0.00 0.36 0.36 90 1007.8
20260507143006 13 246 8.0 30.6 0.00 0.36 0.36 90 1008.4
20260507141503 13 244 9.7 27.4 0.00 0.36 0.36 90 1008.7
20260507140002 13 142 12.9 33.8 0.00 0.36 0.36 90 1008.6
20260507134502 13 204 6.4 27.4 0.00 0.36 0.36 90 1008.9
20260507133003 13 200 9.7 27.4 0.00 0.36 0.36 90 1009.1
20260507131604 13 179 4.8 20.9 0.00 0.36 0.36 91 1009.3
20260507130059 14 188 8.0 17.7 0.00 0.36 0.36 92 1009.1
20260507124559 13 20 8.0 20.9 0.00 0.36 0.36 93 1009.1
20260507123057 13 249 9.7 29.0 0.03 0.36 0.36 94 1009.3
20260507121549 12 182 4.8 17.7 0.03 0.36 0.36 94 1009.8
20260507120046 11 179 6.4 14.5 0.05 0.36 0.36 94 1010.6
20260507114544 11 209 9.7 16.1 0.05 0.36 0.36 94 1011.1
20260507113043 11 142 8.0 19.3 0.13 0.33 0.33 94 1011.1
20260507111545 11 211 4.8 17.7 0.18 0.33 0.33 94 1011.5
20260507110044 11 184 4.8 17.7 0.15 0.33 0.33 94 1011.2
20260507104539 11 145 1.6 14.5 0.15 0.33 0.33 94 1011.4
20260507103039 12 180 6.4 12.9 0.05 0.23 0.23 94 1011.7
20260507101556 12 217 3.2 14.5 0.03 0.15 0.15 94 1012.0
20260507100037 11 318 3.2 11.3 0.03 0.15 0.15 94 1011.3
20260507094534 11 190 4.8 16.1 0.03 0.15 0.15 94 1011.9
20260507093033 11 227 4.8 16.1 0.03 0.15 0.15 94 1012.2
20260507091549 11 148 1.6 11.3 0.05 0.15 0.15 94 1012.2
20260507090028 11 159 1.6 19.3 0.08 0.15 0.15 94 1012.3
20260507084529 11 140 8.0 16.1 0.15 0.15 0.15 94 1012.2
20260507083026 11 178 4.8 17.7 0.15 0.15 0.15 94 1012.3
20260507081534 11 212 1.6 12.9 0.08 0.08 0.08 94 1012.6
20260507080021 11 214 8.0 17.7 0.05 0.05 0.05 94 1012.5
20260507074520 11 183 6.4 12.9 0.00 0.00 0.00 94 1012.8
20260507073017 11 245 4.8 16.1 0.00 0.00 0.00 94 1013.1
20260507071515 11 194 8.0 14.5 0.00 0.00 0.00 94 1013.3
20260507070014 11 234 3.2 12.9 0.00 0.00 0.00 93 1013.3
20260507064514 11 188 4.8 14.5 0.00 0.00 0.00 93 1013.4
20260507063009 11 212 3.2 11.3 0.00 0.00 0.00 93 1013.8
20260507061520 11 123 4.8 12.9 0.00 0.00 0.00 93 1014.0
20260507060005 11 339 0.0 14.5 0.00 0.00 0.00 93 1014.1
20260507054502 11 128 1.6 14.5 0.00 0.00 0.00 93 1014.3
20260507053002 11 190 4.8 16.1 0.00 0.00 0.00 93 1014.4
20260507051559 11 178 3.2 12.9 0.00 0.00 0.00 92 1014.7
20260507044601 11 180 3.2 16.1 0.00 0.00 0.00 92 1015.2
20260507043051 11 176 1.6 6.4 0.00 0.00 0.00 92 1015.5
20260507041550 11 358 0.0 8.0 0.00 0.00 0.00 92 1015.7
20260507040050 11 64 1.6 6.4 0.00 0.00 0.00 91 1015.9
20260507034548 10 219 0.0 8.0 0.00 0.00 0.00 91 1016.1
20260507033044 10 203 0.0 11.3 0.00 0.00 0.00 90 1016.2
20260507031543 10 245 3.2 12.9 0.00 0.00 0.00 90 1016.2
20260507030042 11 189 4.8 16.1 0.00 0.00 0.00 89 1016.2
20260507024538 12 182 8.0 16.1 0.00 0.00 0.00 87 1016.4